Location: Bucquoy
(50.1391°N, 2.7097°E)
Time: 13:12:59
(UTC+00:00)

Cosmos 44 - Pass Details

Date: 06 May 2021
Orbit: 571 x 791 km, 65.1° (Epoch: 22 June)

Event Time Altitude Azimuth Distance (km) Brightness Sun altitude
Rises 00:42:59 0° 314° (NW) 3,296 7.2 -22.1°
Reaches altitude 10° 00:45:40 10° 305° (NW) 2,355 6.2 -22.0°
Enters shadow 00:49:58 31° 254° (WSW) 1,350 4.5 -21.8°
